{"data":{"norad_id":32955,"epoch":"2026-09-20T03:29:16.391040Z","epoch_age_seconds":52602,"freshness":"FRESH","line1":"1 32955U 08025C   26263.14532860  .00000021  00000+0  76266-4 0  9990","line2":"2 32955  82.4992 293.7336 0022490  97.0131 263.3508 12.43370558831637","mean_motion":12.43370558,"eccentricity":0.002249,"inclination_deg":82.4992,"raan_deg":293.7336,"arg_perigee_deg":97.0131,"mean_anomaly_deg":263.3508,"bstar":7.6266e-5,"rev_number":83163,"period_min":115.81422696033,"perigee_km":1474.6465468098,"apogee_km":1510.0479850379,"semimajor_km":7870.4842659239,"source":"CELESTRAK","updated_at":"2026-09-20T09:00:13.693664Z"}}